カタログに戻る

UM5-EOSAT

運用中科学SSO
NORAD 60555·PAYLOAD·🇲🇦 Morocco

打ち上げ Aug 16, 2024 から Vandenberg Space Force Base

Loading…

次のパス (今後24時間)

TLE

最新Source: Space-Track

元期: Sep 14, 2026, 10:53 UTC

1 60555U 24149CR  26257.45415481  .00001758  00000-0  13875-3 0  9993
2 60555  97.6654 335.1997 0009132 188.1727 171.9351 15.01976568113613

AllMySatでUM5-EOSATをリアルタイム追跡

Download on the App Store